User: anonymous   Login
Location: Spangle
(47.4302°N, 117.3779°W)
Time: 19:25:13
(UTC+00:00)
Language:

Envisat - Orbit

View from above orbital plane
View from above orbital plane
View from above satellite
View from above satellite

Ground track
Ground track

The orbit is defined by the following mean orbital elements,

1 27386U          26133.42467314 +.00000000 +00000-0 +27026-4 0 00006
2 27386  98.3817  85.5230 0001193  91.4361  21.8484 14.39056310    04
Epoch (UTC): 13 May 2026 10:11:31
Eccentricity: 0.0001193
inclination: 98.3817°
perigee height: 761 km
apogee height: 762 km
right ascension of ascending node: 85.5230°
argument of perigee: 91.4361°
revolutions per day: 14.39056310
mean anomaly at epoch: 21.8484°

The dashed part of the orbit path shows where the satellite is in the earth's shadow,  

DLR